Cloud_Cover
0 0 0 0 0 0 0 0 0 4 5 5 5 5 6 58 90 100 100 100 100 100 100 100 100 100 100 100 100 100 100 100 100 100 100 100 100 100 100 100 100 100 100
0 0 0 0 0 0 0 1 0 5 5 5 5 5 5 44 69 100 88 100 100 100 100 100 100 100 100 100 100 100 100 100 100 100 100 100 100 100 100 100 100 100 100
0 0 0 0 0 0 0 5 5 5 4 5 5 5 5 55 15 100 100 100 100 100 100 100 100 100 100 100 100 100 100 100 100 100 100 100 100 100 100 100 100 100 100
0 0 0 0 0 0 0 4 5 5 4 5 5 6 20 42 10 100 100 100 100 100 100 100 100 100 100 100 100 100 100 100 100 100 100 100 100 100 100 100 100 100 100
0 0 0 0 0 0 0 0 5 5 4 5 5 5 35 89 73 98 96 100 100 100 100 100 100 100 100 100 100 100 100 100 100 100 100 100 100 100 100 100 100 100 100
0 0 0 0 0 0 0 5 5 5 5 5 5 5 80 62 10 18 76 100 100 100 100 100 100 100 100 100 100 100 100 100 100 100 100 100 100 100 100 100 100 100 100
0 0 0 0 0 0 0 2 5 5 5 5 5 5 59 78 5 5 6 100 100 100 100 100 100 100 100 100 100 100 100 100 100 100 100 100 100 100 100 100 100 100 100
0 0 0 0 0 0 5 5 5 5 5 5 5 5 10 82 5 5 5 100 100 100 100 100 100 100 100 100 100 100 100 100 100 100 100 100 100 100 100 100 100 100 100
0 0 0 0 0 5 5 5 5 5 5 2 5 5 5 80 43 5 5 100 100 100 100 100 100 100 100 100 100 100 100 100 100 100 100 100 100 100 100 100 100 100 100
0 0 0 0 5 3 5 5 5 5 5 0 0 5 5 6 8 5 5 6 99 100 100 100 100 100 100 100 100 100 100 100 100 100 100 100 100 100 100 100 100 100 100
0 0 0 4 5 5 5 5 5 5 0 5 3 5 5 5 5 5 5 6 51 84 90 97 98 100 100 100 100 100 100 100 100 100 100 100 100 100 100 100 100 100 100
0 0 0 0 0 1 5 5 4 5 5 5 5 4 5 5 5 5 5 5 15 41 92 15 48 59 100 100 100 100 100 100 100 100 100 100 100 100 100 100 100 100 100
0 0 0 0 0 0 0 4 5 5 5 5 5 5 5 5 5 4 5 5 5 5 5 5 5 14 100 100 100 100 100 100 100 100 100 100 100 100 100 100 100 100 100
0 0 0 0 0 0 0 0 5 5 5 5 5 5 6 5 5 5 5 5 5 0 5 5 5 4 98 100 100 100 100 100 100 100 100 100 100 100 100 100 100 100 100
0 0 0 0 0 0 1 3 5 5 4 5 5 5 75 12 5 5 5 5 4 4 2 2 5 5 100 100 100 100 100 100 100 100 100 100 100 100 100 100 100 100 100
0 0 0 0 0 1 5 5 3 5 5 5 5 5 5 2 2 5 5 5 4 0 1 5 5 5 85 100 100 100 100 100 100 100 100 100 100 100 100 100 100 100 100
0 0 0 0 1 5 5 5 5 5 4 0 4 5 5 5 0 0 1 5 0 0 5 5 5 20 100 100 100 100 100 100 100 100 100 100 100 100 100 100 100 100 100
0 0 0 5 5 5 5 5 5 14 40 5 1 3 5 5 4 0 0 0 4 2 5 5 5 5 100 100 100 100 100 100 100 100 100 100 100 100 100 100 100 100 100
0 5 5 5 5 5 5 5 7 36 60 5 5 5 5 4 5 2 4 5 5 5 5 5 5 5 85 100 100 100 100 100 100 100 100 100 100 100 100 100 100 100 100
0 0 5 5 6 5 12 13 26 17 11 5 5 5 5 5 5 35 8 15 6 5 5 5 5 5 5 100 100 100 100 100 100 100 100 100 100 100 100 100 100 100 100
0 0 0 5 5 5 5 5 5 5 5 5 5 5 5 5 5 5 46 49 37 54 47 5 6 5 5 5 36 100 100 100 100 100 100 100 100 100 100 100 100 100 100
0 0 1 5 5 5 5 5 5 6 5 5 5 5 5 7 5 24 20 26 31 6 36 34 63 56 5 5 5 86 100 100 100 100 100 100 100 100 100 100 100 100 100
3 1 5 5 5 39 6 5 5 5 5 5 24 5 5 47 18 5 5 7 61 52 56 55 63 64 57 7 5 5 6 78 96 100 100 100 100 100 100 100 100 100 100
0 0 5 5 5 5 5 5 5 22 20 5 5 9 5 5 5 5 5 5 23 54 53 41 38 11 7 18 22 5 5 57 63 76 100 100 100 100 100 100 100 100 100
0 0 5 5 5 5 25 5 5 5 33 73 11 8 8 5 5 5 5 5 5 5 5 5 5 5 5 5 5 5 5 33 8 47 62 11 76 96 100 100 100 100 100
4 2 2 5 10 5 30 17 14 9 5 7 7 5 5 5 10 5 5 5 8 5 5 5 5 5 5 5 5 5 5 5 5 5 60 5 5 9 50 30 88 100 100